When you browse on this site, cookies collect data to enhance your experience and personalize the content and advertising you see.
Visit our Privacy Policy to learn more. By continuing to use the site, you agree to this use of cookies and data.
  • In Spain
  • List of Countries
  • For 7 days
  • Water Temperature
  • Satellite Maps
  • Weather Map
  • Weather Widgets
  • user-avatar
    Login

    Hourly Weather Rebordosa

    Today, 20 November, Tuesday

    Time Temperature Precipitation Wind Pressure Humidity
    00:00 +12°C° 1 mm 2 mps 722 mmHg 93%
    01:00 +10°C° 1 mm 2 mps 721 mmHg 93%
    02:00 +10°C° 1 mm 3 mps 721 mmHg 94%
    03:00 +10°C° 0.3 mm 3 mps 721 mmHg 93%
    04:00 +10°C° 0.3 mm 3 mps 721 mmHg 93%
    05:00 +10°C° 0 mm 3 mps 720 mmHg 93%
    06:00 +10°C° 0.5 mm 3 mps 720 mmHg 91%
    07:00 +10°C° 0.5 mm 3 mps 721 mmHg 90%
    08:00 +10°C° 0.5 mm 3 mps 721 mmHg 88%
    09:00 +11°C° 0.2 mm 3 mps 721 mmHg 85%
    10:00 +12°C° 0.2 mm 3 mps 721 mmHg 82%
    11:00 +12°C° 0.2 mm 3 mps 721 mmHg 79%
    12:00 +12°C° 0.1 mm 3 mps 721 mmHg 78%
    13:00 +12°C° 0.1 mm 3 mps 721 mmHg 77%
    14:00 +13°C° 0.1 mm 3 mps 721 mmHg 76%
    15:00 +12°C° 0.2 mm 3 mps 721 mmHg 81%
    16:00 +11°C° 0.2 mm 3 mps 722 mmHg 86%
    17:00 +10°C° 0.2 mm 2 mps 722 mmHg 91%
    18:00 +10°C° 0.2 mm 2 mps 722 mmHg 92%
    19:00 +10°C° 0.2 mm 2 mps 723 mmHg 92%
    20:00 +10°C° 0.2 mm 2 mps 723 mmHg 93%
    21:00 +10°C° 0.3 mm 2 mps 723 mmHg 92%
    22:00 +10°C° 0.3 mm 2 mps 723 mmHg 92%
    23:00 +10°C° 0.3 mm 2 mps 724 mmHg 92%

    Tomorrow, 21 November, Wednesday

    Time Temperature Precipitation Wind Pressure Humidity
    00:00 +9°C° 0.4 mm 2 mps 724 mmHg 92%
    01:00 +9°C° 0.4 mm 3 mps 724 mmHg 92%
    02:00 +9°C° 0.4 mm 3 mps 724 mmHg 92%
    03:00 +9°C° 0.7 mm 3 mps 724 mmHg 91%
    04:00 +8°C° 0.7 mm 4 mps 725 mmHg 91%
    05:00 +7°C° 0.7 mm 4 mps 725 mmHg 90%
    06:00 +8°C° 0.7 mm 4 mps 725 mmHg 88%
    07:00 +8°C° 0.7 mm 4 mps 726 mmHg 86%
    08:00 +8°C° 0.7 mm 4 mps 726 mmHg 84%
    09:00 +9°C° 0.5 mm 5 mps 726 mmHg 80%
    10:00 +10°C° 0.5 mm 5 mps 727 mmHg 77%
    11:00 +10°C° 0.5 mm 5 mps 727 mmHg 73%
    12:00 +10°C° 0.5 mm 5 mps 727 mmHg 74%
    13:00 +10°C° 0.5 mm 5 mps 727 mmHg 74%
    14:00 +10°C° 0.5 mm 5 mps 727 mmHg 74%
    15:00 +9°C° 0.5 mm 5 mps 727 mmHg 78%
    16:00 +8°C° 0.5 mm 4 mps 728 mmHg 82%
    17:00 +8°C° 0.5 mm 3 mps 728 mmHg 86%
    18:00 +8°C° 0.4 mm 3 mps 728 mmHg 87%
    19:00 +8°C° 0.4 mm 3 mps 729 mmHg 89%
    20:00 +8°C° 0.4 mm 3 mps 729 mmHg 90%
    21:00 +7°C° 0.5 mm 3 mps 729 mmHg 90%
    22:00 +7°C° 0.5 mm 3 mps 729 mmHg 91%
    23:00 +7°C° 0.5 mm 3 mps 729 mmHg 92%

    Day after tomorrow, 22 November, Thursday

    Time Temperature Precipitation Wind Pressure Humidity
    00:00 +7°C° 0.6 mm 3 mps 729 mmHg 92%
    01:00 +7°C° 0.6 mm 3 mps 730 mmHg 92%
    02:00 +7°C° 0.6 mm 3 mps 730 mmHg 92%
    03:00 +7°C° 0.5 mm 3 mps 730 mmHg 93%
    04:00 +7°C° 0.5 mm 3 mps 730 mmHg 93%
    05:00 +7°C° 0.5 mm 3 mps 729 mmHg 93%
    06:00 +7°C° 0.3 mm 3 mps 730 mmHg 92%
    07:00 +7°C° 0.3 mm 3 mps 730 mmHg 90%
    08:00 +8°C° 0.3 mm 3 mps 730 mmHg 88%
    09:00 +8°C° 0.4 mm 4 mps 730 mmHg 82%
    10:00 +10°C° 0.4 mm 4 mps 730 mmHg 76%
    11:00 +10°C° 0.4 mm 5 mps 730 mmHg 70%
    12:00 +10°C° 0.3 mm 5 mps 730 mmHg 70%
    13:00 +12°C° 0.3 mm 4 mps 730 mmHg 70%
    14:00 +12°C° 0.3 mm 4 mps 729 mmHg 70%
    15:00 +10°C° 0.3 mm 4 mps 729 mmHg 76%
    16:00 +8°C° 0.3 mm 4 mps 730 mmHg 81%
    17:00 +8°C° 0.3 mm 3 mps 730 mmHg 86%
    18:00 +8°C° 0.5 mm 3 mps 730 mmHg 87%
    19:00 +8°C° 0.5 mm 3 mps 730 mmHg 88%
    20:00 +8°C° 0.5 mm 3 mps 731 mmHg 89%
    21:00 +7°C° 0.5 mm 3 mps 731 mmHg 90%
    22:00 +7°C° 0.5 mm 2 mps 731 mmHg 90%
    23:00 +7°C° 0.5 mm 2 mps 731 mmHg 91%

    23 November, Friday

    Time Temperature Precipitation Wind Pressure Humidity
    00:00 +7°C° 0.2 mm 2 mps 730 mmHg 92%
    01:00 +7°C° 0.2 mm 2 mps 730 mmHg 93%
    02:00 +7°C° 0.2 mm 2 mps 730 mmHg 94%
    03:00 +7°C° 0.2 mm 2 mps 730 mmHg 94%
    04:00 +7°C° 0.2 mm 2 mps 730 mmHg 94%
    05:00 +7°C° 0.2 mm 3 mps 730 mmHg 95%
    06:00 +7°C° 0.9 mm 3 mps 730 mmHg 94%
    07:00 +8°C° 0.9 mm 3 mps 730 mmHg 92%
    08:00 +8°C° 0.9 mm 3 mps 730 mmHg 91%
    09:00 +7°C° 1.4 mm 4 mps 730 mmHg 90%
    10:00 +8°C° 1.4 mm 4 mps 730 mmHg 89%
    11:00 +8°C° 1.4 mm 4 mps 730 mmHg 87%
    12:00 +8°C° 0.9 mm 4 mps 730 mmHg 86%
    13:00 +8°C° 0.9 mm 4 mps 730 mmHg 84%
    14:00 +8°C° 0.9 mm 4 mps 730 mmHg 83%
    15:00 +9°C° 0.4 mm 3 mps 731 mmHg 85%
    16:00 +8°C° 0.4 mm 3 mps 731 mmHg 87%
    17:00 +8°C° 0.4 mm 2 mps 731 mmHg 90%
    18:00 +7°C° 0.1 mm 2 mps 731 mmHg 90%
    19:00 +7°C° 0.1 mm 2 mps 732 mmHg 91%
    20:00 +8°C° 0.1 mm 1 mps 732 mmHg 91%
    21:00 +8°C° 0.1 mm 1 mps 732 mmHg 91%
    22:00 +7°C° 0.1 mm 2 mps 732 mmHg 92%
    23:00 +7°C° 0.1 mm 2 mps 732 mmHg 92%

    24 November, Saturday

    Time Temperature Precipitation Wind Pressure Humidity
    00:00 +7°C° 0.1 mm 2 mps 732 mmHg 92%
    01:00 +7°C° 0.1 mm 2 mps 732 mmHg 92%
    02:00 +7°C° 0.1 mm 2 mps 732 mmHg 92%
    03:00 +7°C° 0 mm 2 mps 732 mmHg 91%
    04:00 +7°C° 0 mm 3 mps 732 mmHg 91%
    05:00 +7°C° 0 mm 3 mps 732 mmHg 91%
    06:00 +7°C° 0.1 mm 3 mps 732 mmHg 90%
    07:00 +8°C° 0.1 mm 3 mps 732 mmHg 89%
    08:00 +8°C° 0.1 mm 3 mps 733 mmHg 88%
    09:00 +8°C° 0.2 mm 4 mps 732 mmHg 87%
    10:00 +10°C° 0.2 mm 4 mps 732 mmHg 86%
    11:00 +10°C° 0.2 mm 4 mps 731 mmHg 85%
    12:00 +9°C° 0.6 mm 5 mps 731 mmHg 86%
    13:00 +9°C° 0.6 mm 5 mps 730 mmHg 87%
    14:00 +9°C° 0.6 mm 5 mps 730 mmHg 88%
    15:00 +9°C° 1.6 mm 5 mps 729 mmHg 89%
    16:00 +10°C° 1.6 mm 4 mps 729 mmHg 91%
    17:00 +8°C° 1.6 mm 4 mps 729 mmHg 92%
    18:00 +8°C° 4.7 mm 4 mps 729 mmHg 93%
    19:00 +8°C° 4.7 mm 4 mps 729 mmHg 93%
    20:00 +8°C° 4.7 mm 4 mps 729 mmHg 93%
    21:00 +8°C° 1.1 mm 4 mps 729 mmHg 93%
    22:00 +10°C° 1.1 mm 3 mps 729 mmHg 92%
    23:00 +10°C° 1.1 mm 3 mps 729 mmHg 92%

    25 November, Sunday

    Time Temperature Precipitation Wind Pressure Humidity
    00:00 +10°C° 0.1 mm 3 mps 729 mmHg 93%
    01:00 +10°C° 0.1 mm 3 mps 729 mmHg 93%
    02:00 +10°C° 0.1 mm 2 mps 729 mmHg 93%
    03:00 +10°C° 0.1 mm 2 mps 729 mmHg 93%
    04:00 +10°C° 0.1 mm 2 mps 729 mmHg 93%
    05:00 +10°C° 0.1 mm 2 mps 729 mmHg 93%
    06:00 +10°C° 0.1 mm 2 mps 729 mmHg 93%
    07:00 +12°C° 0.1 mm 2 mps 730 mmHg 92%
    08:00 +12°C° 0.1 mm 2 mps 730 mmHg 92%
    09:00 +12°C° 0.1 mm 3 mps 731 mmHg 90%
    10:00 +13°C° 0.1 mm 3 mps 731 mmHg 88%
    11:00 +13°C° 0.1 mm 3 mps 731 mmHg 86%
    12:00 +13°C° 0.1 mm 3 mps 731 mmHg 87%
    13:00 +13°C° 0.1 mm 3 mps 731 mmHg 88%
    14:00 +13°C° 0.1 mm 3 mps 730 mmHg 89%
    15:00 +12°C° 0.1 mm 3 mps 731 mmHg 90%
    16:00 +12°C° 0.1 mm 3 mps 731 mmHg 91%
    17:00 +11°C° 0.1 mm 3 mps 732 mmHg 92%
    18:00 +11°C° 0.2 mm 3 mps 732 mmHg 92%
    19:00 +10°C° 0.2 mm 3 mps 732 mmHg 92%
    20:00 +10°C° 0.2 mm 3 mps 732 mmHg 92%
    21:00 +10°C° 0.2 mm 3 mps 732 mmHg 92%
    22:00 +10°C° 0.2 mm 3 mps 732 mmHg 92%
    23:00 +10°C° 0.2 mm 3 mps 732 mmHg 92%
    Show more